Location: Newark
(41.8083°N, 72.2500°W)
Time: 10:55:23
(UTC+00:00)

Explorer 11/Cluster Stage 4 - Pass Details

Date: 15 December 2021
Orbit: 467 x 1255 km, 28.8° (Epoch: 23 January)

Event Time Altitude Azimuth Distance (km) Brightness Sun altitude
Rises 04:35:38 0° 241° (WSW) 2,603 - -71.4°
Reaches altitude 10° 04:38:40 10° 213° (SSW) 1,819 - -71.4°
Maximum altitude 04:40:48 14° 182° (S) 1,674 - -71.5°
Drops below altitude 10° 04:43:07 10° 152° (SSE) 2,006 - -71.5°
Sets 04:46:49 0° 127° (SE) 3,103 - -71.5°
